Time,TemperatureF,DewpointF,PressureIn,WindDirection,WindDirectionDegrees,WindSpeedMPH,WindSpeedGustMPH,Humidity,HourlyPrecipIn,Conditions,Clouds,dailyrainin,SoftwareType,DateUTC
2014-09-17 00:06:00,70.7,69.0,29.95,WSW,242,0.0,0.0,95,0.00,,,0.00,weatherlink.com 1.10,2014-09-17 04:06:00,
2014-09-17 00:21:00,70.6,70.0,29.95,WSW,242,0.0,0.0,96,0.00,,,0.00,weatherlink.com 1.10,2014-09-17 04:21:00,
2014-09-17 00:36:00,70.4,69.0,29.95,WSW,242,0.0,0.0,96,0.00,,,0.00,weatherlink.com 1.10,2014-09-17 04:36:00,
2014-09-17 00:51:00,70.0,69.0,29.95,WSW,242,0.0,0.0,96,0.00,,,0.00,weatherlink.com 1.10,2014-09-17 04:51:00,
2014-09-17 01:06:00,69.8,69.0,29.95,WSW,242,0.0,0.0,97,0.00,,,0.00,weatherlink.com 1.10,2014-09-17 05:06:00,
2014-09-17 01:21:00,69.7,69.0,29.94,WSW,242,0.0,0.0,97,0.00,,,0.00,weatherlink.com 1.10,2014-09-17 05:21:00,
2014-09-17 01:36:00,69.5,69.0,29.94,WSW,242,0.0,0.0,97,0.00,,,0.00,weatherlink.com 1.10,2014-09-17 05:36:00,
2014-09-17 01:51:00,69.5,69.0,29.95,WSW,242,0.0,0.0,97,0.00,,,0.00,weatherlink.com 1.10,2014-09-17 05:51:00,
2014-09-17 02:06:00,69.2,68.0,29.94,WSW,242,0.0,0.0,97,0.00,,,0.00,weatherlink.com 1.10,2014-09-17 06:06:00,
2014-09-17 02:22:00,69.0,69.0,29.94,WSW,242,0.0,0.0,98,0.00,,,0.00,weatherlink.com 1.10,2014-09-17 06:22:00,
2014-09-17 02:37:00,69.1,69.0,29.94,WSW,242,0.0,0.0,98,0.00,,,0.00,weatherlink.com 1.10,2014-09-17 06:37:00,
2014-09-17 02:52:00,68.8,68.0,29.94,WSW,242,0.0,0.0,98,0.00,,,0.00,weatherlink.com 1.10,2014-09-17 06:52:00,
2014-09-17 03:07:00,68.6,68.0,29.93,WSW,242,0.0,0.0,98,0.00,,,0.00,weatherlink.com 1.10,2014-09-17 07:07:00,
2014-09-17 03:22:00,68.5,68.0,29.93,WSW,242,0.0,0.0,98,0.00,,,0.00,weatherlink.com 1.10,2014-09-17 07:22:00,
2014-09-17 03:37:00,68.2,68.0,29.93,WSW,241,0.0,0.0,98,0.00,,,0.00,weatherlink.com 1.10,2014-09-17 07:37:00,
2014-09-17 03:52:00,68.0,68.0,29.93,WSW,242,0.0,0.0,98,0.00,,,0.00,weatherlink.com 1.10,2014-09-17 07:52:00,
2014-09-17 04:07:00,67.7,67.0,29.93,WSW,242,0.0,0.0,98,0.00,,,0.00,weatherlink.com 1.10,2014-09-17 08:07:00,
2014-09-17 04:22:00,67.5,67.0,29.92,WSW,242,0.0,0.0,98,0.00,,,0.00,weatherlink.com 1.10,2014-09-17 08:22:00,
2014-09-17 04:37:00,67.7,67.0,29.92,WSW,242,0.0,0.0,99,0.00,,,0.00,weatherlink.com 1.10,2014-09-17 08:37:00,
2014-09-17 04:52:00,67.5,67.0,29.92,WSW,242,0.0,0.0,98,0.00,,,0.00,weatherlink.com 1.10,2014-09-17 08:52:00,
2014-09-17 05:07:00,67.3,67.0,29.92,WSW,242,0.0,0.0,98,0.00,,,0.00,weatherlink.com 1.10,2014-09-17 09:07:00,
2014-09-17 05:22:00,67.4,67.0,29.92,WSW,242,0.0,0.0,99,0.00,,,0.00,weatherlink.com 1.10,2014-09-17 09:22:00,
2014-09-17 05:37:00,67.2,67.0,29.92,WSW,242,0.0,0.0,98,0.00,,,0.00,weatherlink.com 1.10,2014-09-17 09:37:00,
2014-09-17 05:52:00,66.9,66.0,29.92,SW,219,0.0,0.0,98,0.00,,,0.00,weatherlink.com 1.10,2014-09-17 09:52:00,
2014-09-17 06:07:00,66.7,66.0,29.92,SW,218,0.0,0.0,98,0.00,,,0.00,weatherlink.com 1.10,2014-09-17 10:07:00,
2014-09-17 06:22:00,66.4,66.0,29.93,SW,218,0.0,0.0,98,0.00,,,0.00,weatherlink.com 1.10,2014-09-17 10:22:00,
2014-09-17 06:37:00,66.4,66.0,29.93,SW,218,0.0,0.0,98,0.00,,,0.00,weatherlink.com 1.10,2014-09-17 10:37:00,
2014-09-17 06:52:00,66.2,66.0,29.93,SW,218,0.0,0.0,98,0.00,,,0.00,weatherlink.com 1.10,2014-09-17 10:52:00,
2014-09-17 07:07:00,65.9,65.0,29.93,SW,218,0.0,0.0,98,0.00,,,0.00,weatherlink.com 1.10,2014-09-17 11:07:00,
2014-09-17 07:22:00,65.6,65.0,29.93,SW,218,0.0,0.0,98,0.00,,,0.00,weatherlink.com 1.10,2014-09-17 11:22:00,
2014-09-17 07:37:00,65.4,65.0,29.93,SW,218,0.0,0.0,98,0.00,,,0.00,weatherlink.com 1.10,2014-09-17 11:37:00,
2014-09-17 07:52:00,65.1,65.0,29.94,SW,217,0.0,0.0,98,0.00,,,0.00,weatherlink.com 1.10,2014-09-17 11:52:00,
2014-09-17 08:07:00,65.1,65.0,29.94,SW,219,0.0,0.0,98,0.00,,,0.00,weatherlink.com 1.10,2014-09-17 12:07:00,
2014-09-17 08:22:00,65.4,65.0,29.95,SW,218,0.0,0.0,98,0.00,,,0.00,weatherlink.com 1.10,2014-09-17 12:22:00,
2014-09-17 08:37:00,65.7,65.0,29.95,SW,218,0.0,0.0,97,0.00,,,0.00,weatherlink.com 1.10,2014-09-17 12:37:00,
2014-09-17 08:52:00,66.2,65.0,29.95,SW,218,0.0,1.0,96,0.00,,,0.00,weatherlink.com 1.10,2014-09-17 12:52:00,
2014-09-17 09:07:00,66.9,65.0,29.95,SW,215,0.0,1.0,94,0.00,,,0.00,weatherlink.com 1.10,2014-09-17 13:07:00,
2014-09-17 09:22:00,68.7,65.0,29.95,SW,231,0.0,1.0,89,0.00,,,0.00,weatherlink.com 1.10,2014-09-17 13:22:00,
2014-09-17 09:37:00,70.3,65.0,29.95,WSW,239,0.0,1.0,83,0.00,,,0.00,weatherlink.com 1.10,2014-09-17 13:37:00,
2014-09-17 09:52:00,71.6,65.0,29.95,East,90,0.0,2.0,80,0.00,,,0.00,weatherlink.com 1.10,2014-09-17 13:52:00,
2014-09-17 10:07:00,73.0,66.0,29.94,West,274,0.0,1.0,78,0.00,,,0.00,weatherlink.com 1.10,2014-09-17 14:07:00,
2014-09-17 10:22:00,74.6,66.0,29.94,SE,124,1.0,2.0,74,0.00,,,0.00,weatherlink.com 1.10,2014-09-17 14:22:00,
2014-09-17 10:37:00,75.7,66.0,29.94,WSW,250,0.0,2.0,73,0.00,,,0.00,weatherlink.com 1.10,2014-09-17 14:37:00,
2014-09-17 10:52:00,77.3,67.0,29.93,WSW,247,0.0,3.0,70,0.00,,,0.00,weatherlink.com 1.10,2014-09-17 14:52:00,
2014-09-17 11:07:00,78.0,66.0,29.93,NE,46,0.0,2.0,67,0.00,,,0.00,weatherlink.com 1.10,2014-09-17 15:07:00,
2014-09-17 11:22:00,77.5,66.0,29.92,SW,214,0.0,2.0,68,0.00,,,0.00,weatherlink.com 1.10,2014-09-17 15:22:00,
2014-09-17 11:38:00,78.8,66.0,29.92,East,97,0.0,2.0,66,0.00,,,0.00,weatherlink.com 1.10,2014-09-17 15:38:00,
2014-09-17 11:53:00,78.6,67.0,29.92,East,101,0.0,3.0,68,0.00,,,0.00,weatherlink.com 1.10,2014-09-17 15:53:00,
2014-09-17 12:08:00,78.0,67.0,29.91,East,93,0.0,1.0,68,0.00,,,0.00,weatherlink.com 1.10,2014-09-17 16:08:00,
2014-09-17 12:23:00,79.0,66.0,29.90,ESE,108,0.0,2.0,64,0.00,,,0.00,weatherlink.com 1.10,2014-09-17 16:23:00,
2014-09-17 12:53:00,79.8,67.0,29.91,West,281,2.0,3.0,65,0.00,,,0.00,weatherlink.com 1.10,2014-09-17 16:53:00,
2014-09-17 13:08:00,80.2,67.0,29.91,WNW,288,0.0,2.0,64,0.00,,,0.00,weatherlink.com 1.10,2014-09-17 17:08:00,
2014-09-17 13:23:00,80.4,66.0,29.91,West,269,0.0,2.0,62,0.00,,,0.00,weatherlink.com 1.10,2014-09-17 17:23:00,
2014-09-17 13:38:00,80.7,66.0,29.90,ESE,103,0.0,2.0,61,0.00,,,0.00,weatherlink.com 1.10,2014-09-17 17:38:00,
2014-09-17 13:53:00,80.2,66.0,29.89,SSE,153,0.0,2.0,62,0.00,,,0.00,weatherlink.com 1.10,2014-09-17 17:53:00,
2014-09-17 14:08:00,81.2,67.0,29.89,NNE,27,0.0,2.0,62,0.00,,,0.00,weatherlink.com 1.10,2014-09-17 18:08:00,
2014-09-17 14:23:00,80.7,67.0,29.89,West,277,0.0,4.0,63,0.00,,,0.00,weatherlink.com 1.10,2014-09-17 18:23:00,
2014-09-17 14:38:00,81.7,67.0,29.89,East,98,0.0,2.0,62,0.00,,,0.00,weatherlink.com 1.10,2014-09-17 18:38:00,
2014-09-17 14:53:00,82.1,66.0,29.88,WNW,293,0.0,2.0,59,0.00,,,0.00,weatherlink.com 1.10,2014-09-17 18:53:00,
2014-09-17 15:08:00,82.1,68.0,29.87,West,273,0.0,1.0,62,0.00,,,0.00,weatherlink.com 1.10,2014-09-17 19:08:00,
2014-09-17 15:23:00,82.7,67.0,29.87,East,94,2.0,3.0,60,0.00,,,0.00,weatherlink.com 1.10,2014-09-17 19:23:00,
2014-09-17 15:38:00,82.5,66.0,29.87,West,274,2.0,2.0,57,0.00,,,0.00,weatherlink.com 1.10,2014-09-17 19:38:00,
2014-09-17 15:53:00,82.9,66.0,29.87,WSW,248,0.0,3.0,56,0.00,,,0.00,weatherlink.com 1.10,2014-09-17 19:53:00,
2014-09-17 16:08:00,83.1,66.0,29.86,SW,228,0.0,2.0,57,0.00,,,0.00,weatherlink.com 1.10,2014-09-17 20:08:00,
2014-09-17 16:23:00,83.6,66.0,29.86,ESE,111,0.0,1.0,56,0.00,,,0.00,weatherlink.com 1.10,2014-09-17 20:23:00,
2014-09-17 16:38:00,82.2,66.0,29.85,South,181,0.0,1.0,59,0.00,,,0.00,weatherlink.com 1.10,2014-09-17 20:38:00,
2014-09-17 16:53:00,81.8,65.0,29.86,West,265,0.0,1.0,57,0.00,,,0.00,weatherlink.com 1.10,2014-09-17 20:53:00,
2014-09-17 17:08:00,81.1,64.0,29.86,West,261,0.0,1.0,57,0.00,,,0.00,weatherlink.com 1.10,2014-09-17 21:08:00,
2014-09-17 17:23:00,80.2,63.0,29.86,West,269,0.0,2.0,57,0.00,,,0.00,weatherlink.com 1.10,2014-09-17 21:23:00,
2014-09-17 17:38:00,80.2,63.0,29.86,West,269,0.0,1.0,56,0.00,,,0.00,weatherlink.com 1.10,2014-09-17 21:38:00,
2014-09-17 17:53:00,79.5,63.0,29.86,East,84,0.0,1.0,58,0.00,,,0.00,weatherlink.com 1.10,2014-09-17 21:53:00,
2014-09-17 18:08:00,79.0,60.0,29.86,WNW,283,2.0,2.0,52,0.00,,,0.00,weatherlink.com 1.10,2014-09-17 22:08:00,
2014-09-17 18:23:00,78.0,62.0,29.86,ESE,117,0.0,1.0,58,0.00,,,0.00,weatherlink.com 1.10,2014-09-17 22:23:00,
2014-09-17 18:38:00,76.7,63.0,29.86,ESE,115,0.0,0.0,62,0.00,,,0.00,weatherlink.com 1.10,2014-09-17 22:38:00,
2014-09-17 18:53:00,76.3,63.0,29.87,ESE,116,0.0,0.0,64,0.00,,,0.00,weatherlink.com 1.10,2014-09-17 22:53:00,